OPS 4682 DEB, 38403

Orbit data source: Space-Track

OPS 4682 DEB, 38403 is space debris in LEO originally from a launch on Sat, 03 Apr 1965 UTC launched from the Air Force Western Test Range (AFWTR). Debris objects in space refer to the collection of defunct objects orbiting the Earth. Examples of debris include non-operational satellites, rocket bodies, and fragments generated from explosions, collisions, or faulty payload assembly.

Loading next visibility...
Identifier
38403, 1965-027DG
Orbit
LEO
Country
Flag of USUS
Related business
Manufacturer
Unknown
Mission
Spacecraft
Bus & Motor
Unknown
Mass
Unknown
Launch date (UTC)
1965-04-03 (61 years ago)
Launch vehicle
Unknown
Launch site
Air Force Western Test Range (AFWTR)
Object type
Payload
Rocket body
Debris
Shape & HBR
Unknown shape, 0.1 m
Radar Cross Section
Small (<0.1 m²)

Expand to show TLE details & history
Last TLE update: 8 hours ago

TLE from 8 hours ago
0 OPS 4682 DEB
1 38403U 65027DG  25349.85645795  .00000017  00000-0  36388-4 0  9990
2 38403  90.2418   6.7506 0026199 319.6163  40.3011 12.94301830638214
Epoch: 2025-12-15T20:33Z
TLE epoch observation values (Epoch: 2025-12-15T20:33:17.966Z)
Latitude
0.00003°
Longitude
-26.32328°
Altitude
1,272.078 km
Speed
7.227 km/s
True Right ascension
00h 27m 00s
True Declination
0° 00' 00"
Sunlit
Object was in daylight at epoch
Visualization orbit readout
Latitude
Unknown
Longitude
Unknown
Altitude
Unknown
Speed
Unknown
Apparent Right ascension
Unknown
Apparent Declination
Unknown
Sunlit
N/A
Visualization observer readout
Local Sidereal Time
03:26:41
Azimuth
Unknown
Elevation
Unknown
Doppler factor
Unknown
Orbital elements
Apogee altitude
1,301.698 km
Perigee altitude
1,261.562 km
Semi-major axis
7,659.767 km
Eccentricity
0.00262
Inclination
90.2418°
RAAN
6.7506°
Arg. of periapsis
319.6163°
True anomaly
40.49577°
Mean anomaly
40.3011°
Eccentric anomaly
40.39839°
Mean motion
3.23758 °/min
Orbital period
111.19 mins
BSTAR
0.000036388
Loading maneuver chart data...
Computing Atmospheric mass density...
Loading historical data...
Loading historical data...
Loading historical data...
Loading historical data...
Loading historical data...
Loading historical data...
Loading historical data...

Documentation

Showing up to 5 results
|